Location: Gilevgi
(36.8751°N, 30.0581°E)
Time: 03:52:41
(UTC+00:00)

BREEZE-M DEB (TANK) - Visible Passes

Search period start: 17 March 2026 00:00
Search period end: 27 March 2026 00:00
Orbit: 614 x 17098 km, 49.5° (Epoch: 16 March)

Date Brightness Start Highest point End Pass type
(mag) Time Alt. Az. Time Alt. Az. Time Alt. Az.
17 Mar 7.8 04:05:53 10° SSW 05:27:09 69° SE 05:39:21 10° ENE visible
18 Mar 9.6 00:52:01 10° SSE 01:52:25 23° ESE 02:13:52 10° E visible
19 Mar 8.5 02:37:37 10° S 04:07:28 52° SE 04:23:22 10° ENE visible
20 Mar 9.8 00:17:08 10° SE 00:30:56 11° ESE 00:41:18 10° ESE visible
21 Mar 9.1 01:20:44 10° S 02:46:18 37° SE 03:06:21 10° ENE visible
22 Mar 7.8 03:32:22 10° SSW 04:59:25 71° SE 05:12:10 10° ENE visible
23 Mar 9.5 00:18:33 10° SSE 01:24:23 24° ESE 01:46:59 10° E visible
24 Mar 8.4 02:04:01 10° S 03:39:35 54° SE 03:56:11 10° ENE visible
24 Mar 9.7 23:40:49 10° SE 00:03:00 12° ESE 00:17:36 10° E visible
26 Mar 9.0 00:47:17 10° S 02:18:16 39° SE 02:39:12 10° ENE visible
